User: anonymous   Login
Location: Unspecified
(0.0000°N, 0.0000°E)
Time: 00:10:02
(UTC+00:00)
Language:

METEOR M2 - Orbit

View from above orbital plane
View from above orbital plane
View from above satellite
View from above satellite

Ground track
Ground track

The orbit data is extracted from the following two-line orbital elements,

1 40069U 14037A   21340.49187529 -.00000014  00000-0  12692-4 0  9999
2 40069  98.4472   1.9644 0006117 151.9975 208.1532 14.20692745384467
Epoch (UTC): 06 December 2021 11:48:18
Eccentricity: 0.0006117
inclination: 98.4472°
perigee height: 818 km
apogee height: 827 km
right ascension of ascending node: 1.9644°
argument of perigee: 151.9975°
revolutions per day: 14.20692745
mean anomaly at epoch: 208.1532°
orbit number at epoch: 38446

The dashed part of the orbit path shows where the satellite is in the earth's shadow,  

DLR